Wind_Speed
10 11 13 15 16 17 17 17 17 17 17 16 15 15 14 13 11 11 11 11 11 11 11 11 10 9 8 7 7 7 6 6 6 6 6 5 5 5 5 6 6 6 6 6 5 4 3 2 2 2 2 3 3 3 4 4 4 5 5 5 5 6 6 7 8 8 7 7 6 4 4 4 4 5 5 4 4 4 6 7 8 9 10 12 15
9 10 11 13 15 16 17 17 17 17 16 16 16 15 15 15 13 12 11 12 12 13 12 12 12 10 9 8 8 8 8 8 8 8 7 6 6 5 5 6 6 6 6 6 6 5 4 4 3 3 3 3 3 3 4 4 4 4 5 5 5 5 5 6 6 7 6 6 5 3 2 2 3 4 3 2 2 3 5 6 6 8 10 13 15
8 8 9 11 13 15 16 16 16 16 15 15 15 16 16 16 14 13 12 13 13 14 13 12 12 11 10 9 9 10 10 10 10 9 8 7 7 6 5 6 6 6 6 6 6 5 4 4 4 4 4 4 4 4 4 4 4 4 4 4 5 5 5 5 6 6 6 5 4 4 3 2 2 3 2 1 1 3 4 6 7 9 12 13 15
8 8 8 9 11 13 14 15 15 15 15 15 15 16 17 17 16 14 13 13 14 15 15 14 13 12 11 10 11 11 11 11 11 10 9 8 7 6 6 6 6 6 6 6 6 5 4 4 4 4 3 3 4 4 4 4 4 4 4 4 4 4 5 5 5 6 6 5 5 4 4 3 3 3 3 2 0 3 4 6 8 10 12 13 15
8 7 7 8 9 11 12 13 14 14 15 15 15 16 16 16 16 15 13 13 14 16 16 15 14 13 12 11 12 12 13 12 12 11 10 9 8 7 6 5 6 5 5 5 5 4 4 3 3 3 3 3 3 3 3 4 4 3 3 3 4 4 4 5 6 6 6 6 6 5 4 4 5 4 3 2 2 4 5 6 8 10 12 14 15
10 8 7 7 8 10 11 12 13 14 15 15 15 16 16 16 16 15 14 13 13 15 16 16 16 15 13 12 12 13 14 13 13 12 11 10 9 8 7 6 5 5 5 4 4 3 3 2 1 1 2 2 3 3 4 4 4 4 4 4 4 4 5 5 6 7 7 7 7 6 5 5 5 4 4 5 4 4 5 7 9 11 12 13 13
12 10 8 7 7 8 11 13 14 14 14 15 15 15 15 16 16 15 14 13 12 13 15 16 17 17 15 12 12 13 15 15 14 12 11 11 10 9 7 6 6 5 5 4 3 2 1 1 1 2 2 3 3 4 5 5 5 5 5 4 4 5 5 6 7 7 7 7 7 6 6 5 5 5 6 7 6 5 5 7 9 11 12 13 13
13 12 10 8 7 7 9 12 14 14 14 14 15 15 15 15 15 15 15 14 13 13 14 16 17 18 16 13 12 13 15 16 15 14 13 12 11 10 8 7 6 5 5 4 3 2 2 2 2 3 4 4 4 5 6 6 6 6 6 6 6 6 6 7 8 8 8 8 8 8 7 6 6 7 8 8 8 7 7 7 8 10 12 14 14
14 13 12 10 8 7 7 9 12 14 15 14 14 14 15 15 15 15 15 14 13 13 14 16 17 18 17 15 13 12 14 17 17 16 15 14 12 11 9 8 7 6 5 4 3 3 3 4 4 4 5 6 6 6 7 7 8 8 8 8 7 7 7 8 8 9 9 9 9 9 10 9 8 8 9 10 10 10 9 9 9 10 11 14 15
15 15 14 13 11 9 7 7 9 12 15 15 15 15 15 15 15 15 15 15 14 14 15 16 16 17 18 17 14 12 13 16 18 18 17 15 14 12 11 10 9 8 7 6 5 5 5 5 5 6 6 7 8 9 8 8 9 9 9 9 9 9 9 9 10 9 10 10 11 11 12 11 10 9 10 11 12 12 11 11 12 12 13 14 15
18 16 16 16 14 12 9 8 8 10 13 15 16 16 15 15 14 15 15 15 15 15 16 16 17 18 19 18 16 14 14 16 19 20 19 17 15 14 13 12 11 10 9 8 7 6 6 7 7 7 8 9 9 10 10 10 11 11 10 10 11 11 11 11 11 11 11 11 12 13 13 12 12 11 10 11 13 13 13 13 14 14 14 14 15
20 18 18 18 17 14 12 10 9 9 11 13 15 17 17 16 14 14 15 15 16 16 16 17 18 19 19 19 18 16 16 17 18 19 20 19 18 17 15 14 13 12 10 10 9 8 8 8 9 9 9 10 10 10 10 10 12 13 12 12 12 13 14 13 12 12 12 13 14 15 14 13 13 13 12 13 14 14 15 16 16 16 16 16 16
21 20 19 19 19 17 15 13 11 10 10 12 14 16 17 17 16 15 15 16 16 16 16 17 19 20 20 20 19 19 18 18 18 19 20 21 20 19 18 16 14 13 12 11 10 10 10 10 10 10 10 10 11 12 11 10 11 13 14 14 13 14 15 15 14 14 13 13 15 16 15 14 14 15 14 15 15 15 16 17 18 18 18 18 18
22 20 19 19 20 20 18 16 13 12 12 12 13 13 15 17 17 17 17 17 17 16 17 17 18 20 21 20 21 21 20 20 19 19 21 22 23 22 20 18 16 14 12 11 11 12 12 12 12 12 12 11 11 12 12 12 11 11 13 15 15 15 16 16 17 16 15 14 15 17 17 16 16 16 16 16 16 16 17 18 19 20 20 20 20
24 21 20 20 20 21 20 18 16 14 13 13 13 12 13 15 17 18 18 17 17 17 18 18 18 20 21 22 22 22 22 21 21 21 21 23 24 24 23 21 18 15 13 12 13 13 13 13 14 14 13 13 13 13 13 13 12 11 12 14 16 17 17 17 18 18 17 17 16 17 17 17 18 17 17 17 17 17 18 19 21 21 21 21 21
23 23 21 20 20 21 21 20 18 17 16 15 14 12 12 13 15 17 18 18 18 18 18 18 18 19 21 22 22 22 23 23 23 23 22 23 24 25 25 24 21 18 15 14 14 14 14 14 15 15 14 14 14 13 13 13 13 13 13 14 15 17 19 19 18 18 18 19 18 19 19 19 19 19 19 18 18 18 19 21 22 23 22 22 22
23 23 23 21 20 21 22 22 21 19 18 17 15 14 13 13 14 16 17 19 19 20 20 19 19 19 20 21 23 23 23 24 24 24 24 24 25 25 25 26 25 22 18 16 15 15 15 15 16 16 15 16 15 15 13 13 13 14 14 15 15 16 19 20 19 18 18 19 20 21 21 20 20 20 20 20 19 20 21 22 23 24 23 22 22
23 22 22 22 21 21 22 22 22 22 21 19 17 16 15 15 15 15 16 18 19 20 21 21 20 20 19 20 22 24 24 24 25 26 26 26 26 26 26 27 27 25 22 19 17 17 17 16 16 16 17 17 17 16 15 14 14 14 15 15 15 16 18 20 20 19 19 19 20 22 22 22 21 21 21 21 21 22 22 23 24 24 23 23 23
25 22 22 23 23 23 23 23 23 23 22 21 19 18 17 16 16 16 16 17 18 20 21 22 21 20 19 19 20 23 25 25 25 26 27 27 27 26 26 26 27 27 25 22 20 20 19 18 17 18 18 18 17 17 16 16 15 15 15 15 15 17 18 18 19 20 19 19 20 22 23 23 22 22 22 22 22 22 23 24 25 24 23 24 24
28 25 24 24 24 23 23 23 23 23 24 23 22 21 19 18 18 17 17 18 18 19 21 22 22 21 20 20 20 21 23 25 26 27 28 28 28 28 27 26 26 27 27 26 24 23 22 20 19 19 19 19 18 18 17 16 16 16 16 16 16 17 18 18 19 20 20 20 21 22 23 24 24 24 24 23 22 22 23 24 24 23 24 25 26
31 29 27 26 25 24 23 23 23 24 25 26 25 24 22 20 19 18 19 19 19 19 20 21 22 22 21 20 19 20 22 23 25 27 28 29 29 29 28 27 26 27 28 28 27 26 24 23 22 21 20 20 19 19 18 17 16 16 17 17 17 18 18 18 20 21 21 21 22 22 23 24 25 26 26 24 23 23 24 25 24 24 25 26 26
33 33 31 29 28 26 24 23 24 25 26 27 27 25 23 23 22 20 20 20 20 20 20 21 22 23 22 21 20 20 21 23 24 26 28 29 30 30 29 28 27 27 28 28 28 28 26 25 24 23 22 21 21 20 19 18 18 17 18 18 18 19 19 19 20 21 21 22 22 23 23 24 26 27 27 26 24 24 26 26 25 25 26 27 27
35 35 34 32 30 28 26 25 25 26 27 28 28 27 25 25 24 23 21 21 22 21 21 21 22 23 23 22 21 21 21 22 24 26 27 29 30 31 30 29 29 28 27 27 28 29 28 26 25 25 24 23 22 21 20 20 19 19 19 19 18 19 20 20 20 21 22 23 23 23 24 25 26 27 28 27 26 27 28 27 27 27 27 28 29
37 37 35 34 32 31 29 27 27 27 27 28 29 29 27 26 26 26 24 23 23 23 22 21 22 23 23 23 23 22 22 22 23 26 28 29 30 31 31 31 30 28 27 28 29 30 29 27 27 26 25 25 23 22 21 21 21 21 19 18 18 20 21 21 22 22 22 23 24 25 26 26 27 27 27 27 28 30 30 29 29 29 29 30 31
38 38 37 35 35 33 32 30 30 29 29 29 30 29 28 27 27 28 26 25 25 25 23 22 22 23 23 24 24 24 24 23 24 26 28 29 30 30 31 31 31 29 28 29 30 30 29 29 28 28 27 26 25 24 22 21 21 21 20 19 19 20 22 23 23 23 23 24 26 27 27 28 28 27 26 27 29 31 31 31 31 31 31 33 33
40 39 39 38 37 36 35 34 32 31 31 31 31 31 30 29 29 29 29 28 27 26 25 24 23 23 24 24 25 26 26 25 25 26 28 29 29 29 30 30 31 31 31 31 31 31 31 30 30 29 28 27 25 23 21 21 21 21 21 21 21 22 22 23 24 24 25 26 27 28 29 30 29 28 27 29 30 30 30 31 32 32 33 35 35
41 41 41 40 39 39 38 36 35 35 35 34 33 33 33 32 31 31 30 29 28 27 26 25 25 24 25 25 27 28 27 26 25 26 27 28 29 29 29 30 31 31 31 32 32 32 32 31 30 29 27 24 22 20 20 21 21 22 22 22 23 24 24 25 25 26 26 27 28 29 30 31 30 29 29 30 30 29 30 32 33 34 35 37 38
42 41 41 41 41 40 40 39 38 38 38 38 37 35 34 34 33 31 29 29 28 28 27 27 26 26 26 27 29 29 29 27 25 25 27 29 29 29 29 30 31 31 31 32 33 32 31 30 28 25 22 20 19 20 20 21 21 22 22 23 24 25 25 25 26 27 27 27 28 29 30 31 31 31 30 29 29 29 30 32 34 35 36 37 38
43 42 43 44 43 42 42 41 41 41 41 42 40 38 36 36 36 33 30 29 29 29 29 29 28 28 29 30 30 30 28 26 25 26 28 30 29 29 29 29 30 30 31 32 32 30 28 26 24 21 20 19 19 19 19 20 20 21 21 22 23 24 24 25 26 27 27 27 28 29 30 31 31 30 29 28 28 29 31 33 35 36 36 37 36
43 43 44 45 46 45 45 45 45 46 45 45 44 42 39 38 39 36 32 29 29 30 31 30 30 30 31 31 30 29 28 27 27 28 29 29 28 27 28 28 29 29 30 30 29 27 25 23 21 20 20 20 19 19 18 19 19 20 20 21 22 22 23 24 25 26 26 26 27 27 29 29 28 27 28 29 29 30 33 35 36 36 36 36 35
42 42 45 47 48 48 48 49 50 50 49 48 47 45 42 41 42 38 33 30 31 32 32 32 32 32 31 30 31 30 29 28 28 27 27 28 28 28 28 28 28 28 28 27 26 24 22 21 20 21 21 20 20 19 19 19 19 20 20 20 21 21 22 22 22 22 22 23 25 26 27 27 26 26 27 30 31 32 35 36 36 36 37 37 36
41 42 45 48 50 52 52 53 53 54 53 51 50 48 46 44 43 40 34 31 33 34 34 33 33 32 31 32 32 31 29 28 27 27 28 29 28 28 28 27 26 26 26 25 23 22 21 20 21 21 21 21 21 21 20 20 20 21 21 22 22 22 23 23 22 21 21 22 23 25 26 26 26 27 28 30 31 33 35 35 36 38 40 40 39
43 44 47 51 53 54 55 56 57 56 55 53 51 48 46 45 44 41 36 34 34 35 35 33 33 32 33 33 33 32 30 29 28 28 28 28 28 27 26 26 26 25 24 23 22 21 21 21 21 22 22 22 22 22 22 22 23 23 23 24 25 25 25 25 25 24 24 24 25 27 27 28 29 30 31 32 34 37 38 38 39 42 43 41 41
45 47 48 48 49 50 51 54 56 57 56 55 52 48 46 46 45 43 39 36 36 36 34 33 33 33 34 34 34 32 31 29 28 27 27 27 27 26 26 26 25 24 23 22 22 22 22 23 23 24 24 24 24 25 25 26 27 27 27 28 29 29 29 28 27 28 28 28 30 30 31 32 33 34 35 36 38 40 41 40 41 41 41 41 41
48 48 48 47 46 46 47 49 50 51 52 53 52 50 49 48 47 45 42 39 37 36 34 33 33 34 35 35 33 31 30 29 28 27 27 27 27 27 26 26 24 24 23 24 23 23 24 24 25 25 25 26 27 28 29 30 32 33 33 33 33 32 31 30 30 31 31 32 33 33 34 35 36 38 38 39 39 40 40 40 39 38 38 38 39
49 49 49 49 47 45 45 46 46 46 46 48 50 51 52 52 50 47 44 42 39 37 36 34 34 35 35 34 32 30 29 29 29 28 28 28 28 28 27 26 25 25 25 25 24 25 25 26 26 27 27 28 29 31 33 35 37 39 40 40 38 35 33 32 32 33 34 35 35 35 36 37 38 40 41 40 39 39 39 38 36 34 33 33 34
49 50 51 50 48 45 44 45 44 43 44 45 46 49 52 53 52 48 45 43 40 37 36 35 35 34 33 31 30 30 29 29 29 28 28 28 28 28 27 27 27 26 26 26 26 27 28 28 29 29 30 31 32 34 36 40 43 45 46 44 41 38 36 35 35 36 37 38 37 37 37 37 38 40 40 38 37 38 37 35 32 31 31 32 34
49 50 52 51 49 47 44 43 43 45 46 46 45 44 48 53 53 50 46 43 40 38 37 35 34 33 32 30 30 29 29 29 29 28 28 29 29 29 29 29 29 29 29 29 29 29 30 31 31 33 34 35 36 37 39 42 46 48 47 43 40 39 39 40 40 41 42 41 39 37 38 38 37 37 36 36 36 35 33 31 31 32 33 34 36
51 52 53 52 51 48 44 42 43 45 46 46 46 44 45 50 53 51 46 43 40 38 37 36 34 32 31 31 30 30 30 30 29 29 30 31 31 31 31 31 31 31 30 30 31 32 33 34 35 37 38 39 39 40 41 44 47 48 47 44 40 40 41 41 41 41 41 40 38 38 38 39 37 35 34 34 34 32 31 32 34 35 35 37 38
54 54 54 54 52 48 44 42 42 43 44 44 45 45 44 46 50 50 47 44 41 38 36 35 34 32 31 30 31 31 31 31 31 32 32 33 33 33 33 33 33 33 33 33 34 36 36 37 38 40 40 41 41 42 43 45 46 48 49 46 43 41 42 42 40 39 40 40 39 39 39 39 38 36 34 34 34 34 34 35 37 37 38 39 40
57 56 56 55 53 50 46 43 41 42 42 42 44 45 45 47 49 50 49 46 42 38 36 36 33 32 32 33 33 34 34 34 34 34 34 34 34 34 34 35 35 36 36 37 38 39 40 41 42 43 43 44 44 44 45 45 46 48 50 49 45 43 43 43 42 42 42 42 41 40 39 39 37 36 35 35 36 36 37 39 40 40 41 41 42
60 59 57 56 54 51 48 44 41 41 41 43 45 47 48 49 50 50 49 46 41 37 36 35 34 34 35 36 36 36 36 36 36 36 35 35 36 36 37 37 38 39 40 41 42 43 44 44 45 46 46 47 47 46 46 46 47 48 51 51 49 47 46 45 43 43 43 42 40 39 38 38 38 38 38 38 37 38 39 41 43 44 44 45 46
62 59 56 55 54 53 49 45 43 42 42 44 47 49 50 52 52 51 49 46 40 37 36 36 36 38 39 38 38 39 38 37 36 36 37 38 39 40 41 42 43 44 45 46 46 46 46 46 47 47 47 47 48 47 47 47 48 50 51 52 51 50 49 46 44 43 43 42 40 40 40 39 39 40 42 41 41 40 42 44 46 46 46 47 48
62 59 57 55 53 51 48 46 45 45 44 45 48 51 53 55 54 52 51 48 42 39 38 38 39 40 40 40 40 39 38 37 37 38 39 40 41 41 42 42 43 43 45 46 46 46 46 46 46 46 47 47 47 47 47 48 50 51 51 51 50 50 50 48 45 43 43 43 42 42 42 42 41 41 42 43 43 45 46 48 48 48 48 49 51
59 57 58 56 51 46 45 46 47 46 44 45 48 51 54 55 54 52 52 50 45 41 40 40 40 41 41 40 40 39 39 39 39 39 39 38 38 38 38 39 39 40 42 44 45 46 47 47 47 47 48 48 47 46 46 47 48 49 50 50 49 49 49 48 46 44 43 44 44 44 44 44 43 42 43 44 46 48 50 50 50 50 50 52 53
62 59 59 57 50 43 40 42 45 46 45 45 46 49 51 52 53 53 53 50 46 43 42 41 41 41 41 39 39 40 40 39 38 38 37 37 38 38 38 38 39 41 42 44 46 47 47 47 47 47 47 47 45 45 45 45 45 46 47 48 48 48 48 47 47 46 46 46 47 46 46 46 46 45 46 48 50 51 51 52 53 53 52 53 54
60 62 60 55 51 47 41 39 42 46 47 46 46 47 48 50 51 51 50 47 43 42 42 42 41 40 39 39 39 39 39 38 38 38 39 39 39 39 39 40 41 41 42 43 45 45 45 45 45 45 45 44 43 43 44 44 44 44 45 46 47 47 47 47 47 48 49 49 49 48 48 48 48 49 50 52 54 54 54 55 55 55 55 55 55
52 58 58 54 52 51 46 41 40 41 43 44 43 43 45 48 48 46 42 39 38 38 38 39 40 40 40 40 40 39 39 40 40 41 41 41 41 41 41 41 42 42 41 42 43 43 43 42 42 41 42 42 42 42 43 44 45 45 45 46 46 47 48 48 48 49 50 51 51 51 51 52 53 54 55 56 57 57 57 57 57 57 57 57 56
48 52 55 55 55 54 50 45 41 39 39 41 41 40 39 41 43 42 37 34 35 36 37 39 40 40 40 41 41 42 42 43 43 43 42 42 42 43 43 43 43 41 40 40 40 41 41 41 41 40 41 42 43 43 43 44 45 45 46 47 47 48 49 50 50 51 52 53 53 54 55 56 57 58 59 59 59 59 59 59 59 58 59 58 59
55 52 51 53 56 56 54 50 48 45 43 43 42 42 42 43 46 45 41 37 35 37 39 41 42 42 43 44 45 46 46 45 45 44 43 43 44 45 45 44 43 41 39 38 39 40 40 40 41 41 42 43 43 44 45 46 47 47 48 49 50 50 51 52 52 53 55 55 56 57 58 59 60 60 60 60 60 60 60 60 60 60 61 61 62
63 59 55 54 54 55 55 53 52 51 51 49 47 46 47 49 51 50 46 42 39 40 41 42 43 44 45 46 47 48 48 47 46 45 45 45 46 47 47 46 44 41 39 39 40 41 41 41 42 42 43 44 46 46 47 48 49 49 50 51 51 52 53 54 55 56 57 58 59 60 61 61 62 62 62 62 62 62 62 63 63 63 63 64 64
Wind_Direction
212 215 216 218 222 225 225 224 224 225 226 226 228 235 241 243 241 237 237 240 243 246 249 253 256 255 252 247 244 240 232 222 206 190 184 172 156 145 132 126 120 113 108 103 98 97 101 108 113 115 117 121 131 133 126 119 115 118 126 130 130 129 128 128 128 129 129 129 129 127 119 104 90 85 80 68 50 36 24 14 1 352 354 358 4
206 213 216 217 220 223 225 225 226 226 227 229 230 233 240 243 242 239 240 241 246 251 254 257 261 262 257 249 243 233 221 208 198 192 188 180 168 157 141 133 127 121 116 110 102 96 94 98 105 113 118 120 125 128 127 123 121 125 134 138 140 141 142 142 140 140 141 144 146 147 140 117 100 92 83 68 47 25 5 357 355 352 355 359 6
199 206 212 217 221 224 225 226 227 227 226 228 230 232 236 241 242 241 241 242 245 250 254 259 264 268 265 255 244 233 219 206 199 197 194 187 177 167 153 141 134 127 123 117 110 102 97 95 98 107 118 124 129 131 130 129 129 132 139 146 152 156 158 159 159 157 157 162 169 171 171 150 121 116 121 122 36 2 340 344 355 355 355 357 4
199 200 206 214 221 226 228 229 229 229 227 226 228 230 232 238 240 240 242 244 245 248 251 255 260 264 264 256 246 233 220 211 205 201 199 194 186 176 164 151 141 133 126 120 114 109 104 97 94 99 110 125 134 137 138 139 143 146 148 156 167 174 176 174 174 175 177 185 192 188 181 171 160 163 170 171 312 318 322 344 353 350 350 354 5
206 198 199 207 217 223 228 231 232 231 230 227 227 228 230 233 237 239 241 244 247 249 250 252 255 258 259 254 246 235 224 217 212 206 203 201 195 188 180 164 150 140 129 120 115 112 113 109 104 104 114 135 150 154 155 155 160 166 170 175 183 191 196 192 189 191 194 202 207 204 194 185 183 186 185 200 255 291 317 340 345 343 345 351 2
214 204 195 198 211 220 224 229 232 231 230 229 228 228 229 231 233 234 236 239 245 248 250 250 252 255 256 254 248 240 229 221 216 211 207 206 205 201 194 182 164 150 137 125 117 114 116 123 136 138 142 163 181 185 186 183 183 189 195 199 202 207 211 209 208 208 209 214 218 218 212 199 198 203 202 217 246 282 313 327 333 338 340 340 347
216 211 200 192 201 216 222 226 229 231 231 229 229 230 230 232 233 233 233 233 237 244 248 249 250 252 254 255 250 242 234 226 220 214 211 212 215 214 207 196 180 165 154 146 137 136 140 157 224 245 222 202 200 207 211 209 207 209 212 217 220 222 220 220 222 223 224 227 231 234 233 224 224 229 221 224 245 273 292 307 321 330 329 324 329
211 211 206 194 195 209 220 226 229 231 232 231 230 231 231 233 235 237 236 233 231 237 243 246 248 251 252 253 252 246 238 231 224 217 214 216 219 222 221 212 199 186 175 172 177 197 231 243 247 256 258 249 233 226 226 225 223 222 221 226 232 235 233 230 230 232 234 239 243 248 252 249 241 236 231 234 251 268 277 290 306 317 318 314 318
211 208 205 197 198 207 219 227 230 231 231 232 231 230 230 232 235 238 239 236 232 233 238 242 246 249 251 251 251 247 240 234 229 221 217 217 220 224 227 224 216 208 201 200 209 225 243 257 260 260 263 262 255 246 239 237 236 233 230 231 235 240 242 241 240 239 240 243 248 252 257 258 250 239 237 239 248 261 272 282 291 301 309 309 310
219 211 206 202 202 206 215 226 232 233 231 232 233 231 229 230 233 237 238 237 235 234 237 240 242 245 249 248 247 246 241 235 231 226 221 219 220 222 226 229 226 220 218 221 228 237 246 258 264 266 266 266 264 258 253 248 245 243 239 237 239 242 244 247 248 247 246 247 251 254 256 260 256 248 245 245 249 258 268 277 284 292 303 307 307
222 216 212 211 208 206 212 220 231 239 236 233 233 233 231 229 230 235 238 237 236 235 237 240 241 242 245 246 244 243 241 237 233 231 226 222 221 223 225 227 227 226 227 228 232 237 243 253 260 266 268 268 268 265 261 256 253 251 247 243 243 245 247 251 253 255 254 253 255 257 258 262 264 261 260 259 258 261 268 275 281 288 297 304 304
221 219 216 217 216 209 211 217 223 236 242 239 235 234 234 231 229 234 238 238 235 233 234 238 241 242 243 245 244 240 240 241 237 233 230 226 223 225 229 229 226 227 229 233 239 242 242 246 251 257 263 269 274 274 268 260 256 255 254 249 247 247 249 253 257 258 258 258 259 261 261 264 267 269 269 269 268 269 271 275 280 286 293 300 302
220 221 219 221 221 215 213 216 219 227 240 245 240 236 235 233 230 232 236 239 237 233 231 233 239 243 243 243 244 241 239 241 240 236 233 229 226 225 229 232 230 228 230 234 242 246 247 248 250 253 257 262 271 276 276 270 262 259 258 255 252 251 251 253 256 259 261 260 262 266 268 268 268 270 272 272 272 273 276 279 284 288 292 298 300
221 222 220 222 223 221 218 217 219 224 232 242 246 242 238 235 232 231 234 239 241 237 233 231 234 241 243 242 243 243 240 240 241 239 234 231 229 226 227 230 231 231 234 237 242 247 249 251 252 255 258 259 263 271 276 278 275 269 265 260 256 254 254 253 255 258 261 261 262 269 275 277 274 273 274 274 274 276 279 282 285 288 291 295 296
223 222 221 223 224 225 223 221 222 225 229 236 243 246 244 241 237 233 233 238 242 240 236 232 231 236 241 243 243 243 242 240 240 241 238 234 230 227 225 227 227 228 232 240 246 250 251 252 254 256 260 261 263 267 272 277 280 278 273 265 260 257 256 256 257 258 259 260 262 268 275 280 281 279 278 276 276 278 280 281 283 286 288 291 293
228 224 222 223 225 226 226 224 225 228 229 232 236 242 246 245 242 238 234 236 242 243 242 238 233 233 238 242 244 243 243 242 240 240 241 238 234 228 224 225 225 224 226 234 245 251 252 252 254 257 259 261 261 263 269 276 280 281 278 272 265 260 257 258 260 261 261 261 262 265 270 276 280 282 283 281 279 280 281 282 283 285 287 291 296
233 228 224 223 225 227 227 225 226 229 231 232 232 237 244 245 245 243 238 237 240 244 244 242 238 235 234 238 243 243 243 242 241 239 240 241 239 233 226 223 223 223 224 230 243 253 254 252 253 255 257 260 260 261 263 269 276 279 279 277 272 265 260 259 261 263 263 263 263 264 267 272 278 282 284 285 284 283 283 283 284 285 289 294 299
234 232 227 224 225 229 228 226 225 228 232 234 233 234 240 244 245 245 242 239 239 242 245 245 243 241 238 237 239 242 242 242 241 240 239 241 242 239 232 226 222 222 224 229 241 252 257 256 256 256 257 258 261 262 261 261 267 273 277 280 279 272 264 260 259 262 264 265 265 265 267 270 274 279 282 284 285 283 283 284 285 289 294 297 300
233 231 229 226 226 229 229 226 225 227 230 234 234 234 237 242 245 246 245 242 240 240 244 246 246 245 243 241 239 239 241 242 243 242 241 240 242 242 239 233 226 223 224 230 241 251 256 260 260 259 260 261 262 264 264 262 262 266 272 278 280 276 270 263 259 260 262 264 266 268 269 270 272 275 278 281 282 282 283 284 287 292 296 298 301
233 229 228 228 227 229 230 226 224 226 230 232 234 235 237 239 243 246 247 245 242 240 241 245 246 245 245 245 243 240 239 239 241 242 242 241 241 242 242 239 233 227 226 232 242 249 254 260 263 263 263 263 264 266 266 266 264 263 266 271 275 275 273 267 261 259 260 262 266 269 270 270 271 273 275 278 280 282 282 283 287 292 296 297 301
232 230 230 230 228 228 230 227 223 224 228 232 234 236 238 240 242 244 246 246 244 241 240 242 244 244 243 243 243 242 240 238 237 239 241 242 241 242 242 241 238 232 229 233 242 248 252 258 263 265 265 264 264 265 266 267 268 265 264 266 270 274 274 270 265 262 261 261 265 268 270 270 271 271 273 276 279 280 279 280 285 290 293 295 298
232 233 233 232 230 228 230 229 226 224 228 232 235 237 240 242 242 242 244 245 244 242 239 239 241 243 242 240 240 241 241 239 237 236 238 240 241 241 241 241 240 236 232 233 241 248 251 255 260 264 266 266 264 264 265 268 270 268 264 264 268 272 274 272 269 266 262 260 261 264 267 269 270 271 272 275 278 278 277 279 282 286 288 292 295
232 233 233 233 231 229 230 231 230 227 228 232 235 237 240 243 243 241 241 243 244 242 240 238 238 241 241 239 238 238 239 240 240 238 236 237 239 240 239 239 240 239 236 236 242 247 250 254 259 262 264 265 265 265 266 268 270 269 267 266 268 271 272 271 270 267 264 261 259 259 261 264 267 269 271 274 276 276 275 277 280 282 286 289 292
231 232 233 234 233 232 232 233 233 231 230 232 234 236 238 241 243 242 241 242 242 242 241 238 237 239 240 239 237 236 236 237 239 239 237 236 237 239 239 238 239 240 238 239 243 247 250 253 257 259 262 264 265 266 267 268 270 271 270 268 268 269 270 269 268 266 264 261 258 255 256 258 261 265 270 273 274 274 274 277 279 281 285 289 292
230 232 234 235 235 235 234 235 235 234 233 233 235 236 236 238 241 242 242 242 242 241 241 240 237 237 238 238 238 237 235 234 235 238 239 237 236 238 238 238 238 238 238 239 242 246 249 252 254 257 261 264 266 268 270 271 271 271 269 267 265 266 268 268 267 266 263 260 257 255 254 255 258 262 267 270 270 271 274 277 279 283 287 290 293
229 231 233 234 236 236 236 235 236 236 235 234 235 236 236 236 240 242 242 242 241 240 241 241 240 238 236 236 237 238 236 233 232 235 238 238 237 237 237 237 237 235 236 238 241 244 247 249 252 256 261 265 268 270 270 269 269 269 268 266 265 264 265 265 266 265 263 260 258 256 255 255 256 260 264 266 268 271 275 278 281 285 289 292 294
228 230 232 233 234 235 235 235 235 236 237 235 235 237 238 238 238 240 241 243 242 240 241 242 242 240 238 235 235 237 237 234 230 232 236 237 237 236 235 235 235 234 234 236 239 242 244 248 253 257 261 264 265 265 265 265 267 268 268 268 266 264 263 262 261 262 262 260 259 257 256 256 256 258 261 266 271 276 280 283 286 290 292 293 294
229 230 232 233 233 234 235 235 235 235 237 238 237 237 239 240 241 240 241 244 243 241 241 243 243 242 239 236 234 235 236 234 230 230 233 234 235 235 234 234 234 233 234 236 238 241 244 249 254 258 259 259 258 258 260 262 265 267 268 269 269 267 264 262 260 260 260 260 259 258 258 258 257 258 263 271 278 283 287 289 290 290 291 292 293
230 230 231 233 234 234 234 234 234 234 237 240 241 240 240 243 243 241 240 242 242 240 240 241 243 243 240 236 234 235 235 232 227 227 230 232 234 235 235 235 234 233 234 236 239 243 246 249 251 251 251 251 251 252 255 258 261 265 267 269 269 268 266 264 261 259 260 260 260 260 260 260 260 263 270 279 284 287 287 286 285 286 288 289 291
231 230 230 231 233 233 233 234 235 236 237 239 241 241 240 241 243 241 239 239 240 240 240 242 243 243 240 237 236 235 232 228 225 226 230 233 235 236 235 235 234 234 235 238 241 243 245 245 243 243 243 244 245 248 252 256 259 263 266 267 268 267 266 263 261 259 260 261 262 263 264 265 267 272 277 281 282 282 281 281 282 284 285 285 287
232 230 229 230 231 233 233 233 235 237 237 238 239 240 240 241 242 241 238 239 241 241 241 242 243 243 239 236 235 233 231 229 227 227 230 233 234 235 236 236 236 236 237 239 240 240 238 237 237 238 239 240 243 247 251 254 258 262 265 266 267 267 266 266 265 264 264 266 268 270 272 274 277 278 278 278 278 278 278 280 282 283 283 283 287
232 230 229 229 229 230 231 232 233 235 236 235 236 237 238 241 242 241 239 239 241 242 242 243 243 241 237 233 232 231 229 228 228 227 229 232 234 235 236 237 237 237 237 237 235 232 230 230 232 235 237 240 243 246 249 252 256 259 262 265 265 266 268 269 270 272 273 274 276 277 279 281 282 280 278 277 279 279 280 283 286 287 288 290 290
231 230 230 229 228 227 227 228 230 231 233 233 233 234 236 238 240 240 240 241 242 242 243 243 242 239 234 231 230 229 227 227 228 229 230 232 234 235 235 235 234 233 233 231 229 225 224 227 230 234 239 244 247 249 251 254 256 257 259 261 263 265 268 272 275 278 280 281 282 283 284 285 285 284 284 285 286 286 286 287 289 289 291 293 292
231 232 234 235 235 235 233 232 231 230 230 229 227 227 230 234 236 237 238 241 243 244 244 244 242 238 234 230 229 228 228 228 228 229 229 229 229 229 229 229 230 230 229 229 227 225 225 228 232 235 241 247 252 255 257 258 259 259 258 259 260 263 266 271 275 278 281 283 285 286 287 288 289 291 291 290 290 289 288 289 289 289 290 290 288
233 235 237 237 237 237 239 240 240 239 238 235 231 225 224 227 231 234 236 240 243 244 244 243 240 236 233 230 228 227 227 227 227 226 225 224 223 224 225 226 227 228 229 229 230 230 231 234 237 241 245 249 254 258 260 261 262 261 260 259 259 261 264 268 272 276 279 281 283 284 287 289 291 291 290 288 287 288 288 289 290 290 289 287 286
233 236 238 236 234 233 234 237 239 241 243 244 242 237 229 224 223 227 233 237 239 240 241 239 235 232 231 229 226 225 225 225 225 224 223 223 223 223 223 224 226 228 230 232 235 237 240 242 245 249 252 254 256 260 263 264 264 263 260 258 257 259 262 267 270 273 275 277 278 281 284 286 288 289 289 288 287 288 289 289 289 289 288 287 286
233 236 238 238 237 235 234 234 235 236 238 240 243 243 239 230 222 220 225 231 234 237 238 237 233 230 229 226 224 224 224 224 224 224 223 224 225 226 226 227 229 231 234 236 238 241 245 248 251 255 257 259 261 263 265 267 267 266 263 262 263 264 265 267 269 271 271 272 274 277 281 284 286 288 288 287 287 286 286 288 289 288 287 286 285
233 235 237 238 237 235 234 235 236 237 238 239 239 239 239 235 227 220 217 221 228 233 235 234 230 226 223 222 222 223 224 224 224 225 226 227 228 229 230 231 233 235 237 240 242 246 249 252 255 258 260 262 264 265 267 270 272 271 270 270 270 269 266 264 265 266 267 267 271 277 281 283 283 284 284 286 286 284 282 285 289 289 287 286 285
233 233 235 237 238 237 236 236 237 238 239 241 241 238 236 233 230 224 217 215 220 227 230 229 226 222 220 221 222 223 224 225 225 227 229 230 231 233 234 236 238 240 242 245 247 250 253 255 258 260 262 263 265 266 268 271 274 276 275 275 274 271 267 265 264 266 270 275 280 284 285 283 281 281 281 284 285 283 280 282 286 287 286 286 285
235 235 235 236 237 238 237 237 238 239 239 240 240 239 234 228 226 226 223 216 215 220 224 225 223 221 221 223 224 225 227 228 229 231 233 235 236 238 240 242 244 246 248 250 253 255 257 259 260 262 264 265 266 267 269 271 274 276 277 278 277 277 275 274 273 273 276 280 284 285 283 280 279 279 280 280 281 281 280 282 284 284 284 284 284
234 236 236 235 235 236 236 236 236 237 237 235 235 236 232 223 218 221 222 218 212 212 217 220 221 222 224 226 228 229 230 232 233 236 238 240 243 245 246 248 250 251 253 254 256 257 259 260 261 263 264 265 266 268 269 271 273 274 275 275 275 276 275 276 276 277 277 278 280 281 281 279 278 279 279 278 279 280 281 283 284 285 284 283 283
231 233 235 235 234 234 234 232 232 235 235 234 233 234 230 222 215 214 218 218 212 207 212 217 220 222 226 229 230 232 234 235 237 239 242 245 247 249 251 252 254 255 256 256 257 258 259 260 261 263 264 265 266 267 268 269 270 271 272 273 273 272 272 273 275 277 278 278 279 279 278 277 277 276 276 276 278 280 283 284 285 285 284 283 284
231 231 232 234 236 236 235 232 232 233 233 233 234 233 229 222 215 212 213 216 213 208 209 215 220 223 227 230 233 235 237 239 241 243 246 248 250 251 253 254 255 256 256 257 257 258 258 259 261 262 264 264 265 266 267 268 269 269 270 272 273 273 273 273 274 275 277 278 278 277 276 277 276 275 275 276 277 278 281 283 284 284 283 283 284
232 231 230 231 233 235 234 233 233 233 232 231 233 233 230 224 218 212 209 210 212 211 210 213 219 224 228 231 235 238 241 243 245 247 248 249 251 252 252 254 255 255 256 257 257 257 259 260 261 262 263 264 265 266 267 269 269 270 270 271 273 274 274 275 274 274 274 275 275 275 276 277 277 277 277 276 275 276 279 282 283 283 283 284 285
231 230 228 230 231 232 233 234 235 236 235 234 234 234 231 227 222 216 209 207 209 212 211 213 220 226 229 233 238 241 245 247 248 248 248 250 251 252 253 255 256 257 258 258 259 259 260 261 262 262 263 265 266 267 267 267 268 269 270 270 271 271 272 273 274 273 272 272 272 274 276 278 278 277 276 276 276 278 281 283 283 283 284 284 285
228 228 228 230 232 233 233 233 233 233 234 234 234 233 231 228 224 218 211 207 210 213 213 215 223 229 233 237 241 243 245 247 247 247 249 250 252 254 255 256 257 259 260 259 259 259 260 261 262 263 264 265 265 264 264 264 265 266 268 269 270 270 271 272 274 274 274 275 276 277 278 279 278 276 276 278 279 281 282 283 284 285 285 284 285
224 225 226 229 232 233 233 234 232 229 228 230 233 232 230 228 224 217 210 207 211 215 216 219 226 233 236 238 240 240 241 243 245 248 251 253 254 255 255 256 257 259 260 258 257 258 259 261 262 263 264 265 265 263 262 262 263 264 265 267 268 269 271 273 275 276 277 278 279 280 279 278 278 278 280 282 284 285 285 285 286 287 287 286 286
221 221 222 226 230 233 235 237 236 230 225 226 232 234 232 227 221 214 210 212 218 221 223 225 229 233 235 236 237 238 241 244 246 249 251 253 254 255 256 257 260 261 260 257 256 257 258 260 262 263 264 265 266 265 264 263 264 265 265 266 267 268 270 271 273 275 277 278 279 280 280 280 282 283 285 286 286 286 287 287 287 287 287 287 287
226 226 226 227 229 232 234 235 235 231 226 224 229 235 236 228 217 214 218 226 228 227 227 229 231 233 234 235 237 240 243 245 247 249 251 253 254 256 258 260 262 262 261 258 257 257 258 259 261 262 263 264 266 267 267 267 267 267 267 267 268 269 270 271 273 274 276 277 279 280 281 282 284 285 286 286 287 287 287 287 287 286 287 287 287
231 233 233 231 230 232 234 235 234 234 232 231 232 233 234 230 224 223 229 234 232 229 229 230 231 233 235 236 239 242 245 247 248 250 251 253 255 257 259 262 263 263 264 262 260 258 258 259 260 261 263 265 266 267 268 269 269 270 270 270 271 271 272 273 274 275 276 278 279 280 281 282 283 284 284 285 285 285 285 285 285 285 286 286 287
231 232 233 233 232 231 232 233 234 233 233 235 236 237 236 234 231 231 234 237 237 236 236 235 235 237 238 240 243 246 248 250 252 253 254 255 257 258 260 261 262 264 265 265 263 261 261 260 261 262 264 265 266 267 268 269 270 271 272 272 273 274 274 275 276 277 278 279 279 280 281 281 282 282 283 283 283 283 284 284 284 285 285 286 287
Height
5921 5922 5925 5927 5929 5931 5934 5936 5938 5940 5942 5945 5947 5948 5950 5951 5953 5954 5955 5956 5956 5957 5957 5958 5959 5959 5960 5961 5961 5962 5962 5963 5964 5965 5965 5966 5966 5967 5967 5967 5968 5968 5968 5968 5969 5969 5969 5970 5971 5971 5971 5972 5972 5973 5973 5974 5974 5975 5975 5976 5976 5976 5977 5978 5978 5978 5978 5978 5978 5978 5978 5978 5978 5978 5978 5978 5978 5978 5977 5977 5976 5975 5973 5972 5971
5919 5921 5923 5925 5927 5929 5931 5934 5936 5938 5941 5943 5945 5947 5948 5950 5951 5953 5954 5955 5956 5956 5957 5958 5958 5959 5960 5961 5961 5962 5963 5963 5964 5965 5965 5966 5967 5967 5968 5968 5968 5968 5968 5969 5969 5969 5970 5970 5970 5971 5971 5971 5972 5972 5973 5973 5974 5974 5975 5976 5976 5977 5977 5977 5978 5978 5978 5978 5978 5978 5978 5978 5978 5978 5978 5978 5978 5978 5977 5976 5975 5974 5973 5971 5970
5918 5919 5921 5923 5925 5927 5929 5932 5934 5936 5939 5941 5943 5945 5946 5948 5949 5951 5953 5954 5955 5955 5956 5957 5958 5959 5960 5960 5961 5962 5962 5963 5964 5965 5965 5966 5967 5967 5968 5968 5968 5969 5969 5969 5969 5970 5970 5970 5970 5971 5971 5971 5972 5972 5973 5973 5974 5974 5975 5975 5976 5976 5977 5977 5978 5978 5978 5978 5978 5978 5978 5978 5978 5978 5978 5978 5978 5977 5977 5976 5974 5973 5972 5971 5970
5917 5918 5920 5922 5924 5926 5928 5930 5932 5935 5937 5939 5940 5942 5944 5945 5947 5949 5951 5952 5953 5954 5955 5956 5957 5958 5958 5959 5960 5961 5962 5963 5964 5965 5965 5966 5967 5967 5968 5969 5969 5969 5969 5970 5970 5970 5970 5970 5971 5971 5971 5971 5972 5972 5973 5973 5974 5974 5975 5975 5976 5976 5977 5977 5977 5978 5978 5978 5978 5978 5978 5978 5978 5978 5978 5978 5977 5977 5976 5975 5974 5972 5971 5970 5969
5916 5917 5918 5920 5922 5924 5926 5928 5930 5932 5934 5936 5938 5939 5941 5943 5945 5947 5949 5950 5951 5952 5953 5954 5955 5956 5957 5958 5959 5960 5961 5962 5963 5964 5965 5966 5967 5967 5968 5969 5969 5969 5969 5970 5970 5970 5970 5970 5970 5971 5971 5971 5971 5972 5972 5973 5974 5974 5974 5975 5975 5976 5976 5977 5977 5977 5977 5977 5977 5977 5977 5977 5977 5977 5977 5977 5977 5977 5976 5974 5973 5972 5970 5969 5968
5916 5916 5917 5918 5920 5922 5924 5926 5928 5930 5932 5934 5936 5937 5939 5941 5943 5945 5947 5948 5949 5950 5951 5953 5954 5955 5956 5957 5958 5959 5960 5961 5963 5964 5965 5965 5966 5967 5968 5968 5969 5969 5969 5969 5970 5970 5970 5970 5970 5970 5970 5971 5971 5971 5972 5972 5973 5974 5974 5974 5975 5975 5976 5976 5976 5976 5976 5976 5977 5977 5977 5977 5977 5977 5977 5977 5977 5976 5975 5974 5972 5971 5969 5968 5967
5915 5916 5916 5917 5918 5920 5922 5924 5926 5928 5930 5932 5934 5936 5937 5939 5941 5943 5944 5946 5947 5948 5949 5951 5952 5953 5954 5955 5957 5958 5959 5960 5962 5963 5964 5965 5965 5966 5967 5968 5968 5969 5969 5969 5969 5969 5969 5970 5970 5970 5970 5970 5970 5971 5971 5972 5972 5973 5973 5974 5974 5974 5975 5975 5975 5975 5975 5975 5975 5975 5975 5975 5976 5976 5976 5976 5975 5975 5974 5973 5971 5970 5969 5967 5967
5914 5914 5915 5916 5917 5918 5920 5922 5924 5926 5928 5930 5932 5934 5935 5937 5939 5940 5942 5944 5945 5946 5947 5948 5949 5951 5952 5954 5955 5956 5958 5959 5960 5962 5963 5964 5965 5965 5966 5967 5968 5968 5968 5969 5969 5969 5969 5969 5969 5969 5969 5969 5970 5970 5970 5971 5971 5972 5972 5973 5973 5973 5974 5974 5974 5974 5974 5974 5974 5974 5974 5974 5974 5975 5975 5974 5974 5973 5972 5972 5971 5970 5968 5967 5965
5912 5913 5914 5915 5915 5916 5918 5920 5922 5924 5926 5928 5929 5931 5933 5935 5936 5938 5940 5942 5943 5944 5945 5946 5947 5948 5950 5952 5953 5954 5956 5957 5958 5960 5961 5962 5964 5964 5965 5966 5967 5967 5968 5968 5968 5968 5968 5968 5969 5969 5968 5968 5969 5969 5969 5970 5970 5970 5971 5971 5972 5972 5972 5973 5973 5973 5973 5973 5973 5973 5973 5973 5973 5973 5973 5973 5972 5971 5971 5970 5969 5969 5968 5966 5964
5909 5910 5912 5913 5914 5915 5916 5918 5920 5922 5923 5926 5927 5929 5931 5932 5934 5935 5937 5939 5941 5942 5943 5943 5945 5946 5947 5949 5951 5952 5954 5955 5956 5958 5959 5961 5962 5963 5964 5965 5965 5966 5966 5967 5967 5968 5968 5968 5968 5968 5968 5968 5968 5968 5968 5968 5969 5969 5970 5970 5971 5971 5971 5971 5971 5972 5972 5972 5972 5972 5972 5972 5972 5972 5972 5971 5971 5970 5969 5968 5967 5967 5966 5965 5963
5906 5908 5909 5911 5912 5913 5915 5916 5918 5920 5921 5923 5925 5926 5928 5930 5931 5932 5934 5936 5938 5939 5940 5941 5942 5944 5945 5946 5948 5950 5951 5952 5954 5955 5957 5959 5960 5961 5962 5963 5964 5964 5965 5965 5966 5966 5967 5967 5967 5967 5967 5966 5966 5967 5967 5967 5967 5968 5968 5969 5970 5970 5970 5970 5970 5970 5970 5971 5970 5970 5970 5970 5970 5970 5970 5969 5969 5968 5967 5966 5966 5965 5964 5963 5962
5903 5905 5907 5908 5910 5912 5913 5914 5916 5918 5919 5921 5922 5924 5926 5928 5929 5930 5931 5933 5934 5936 5938 5939 5940 5941 5942 5944 5945 5947 5948 5949 5951 5953 5955 5957 5958 5959 5960 5961 5962 5963 5963 5964 5964 5965 5965 5966 5966 5966 5965 5965 5965 5965 5965 5966 5966 5966 5967 5967 5968 5968 5968 5969 5969 5969 5969 5969 5969 5968 5969 5969 5968 5968 5968 5967 5967 5966 5965 5965 5964 5963 5962 5961 5960
5901 5903 5905 5906 5908 5910 5911 5913 5914 5916 5917 5918 5920 5922 5923 5925 5927 5928 5928 5929 5931 5933 5935 5937 5937 5938 5940 5941 5942 5944 5946 5946 5948 5950 5952 5954 5955 5957 5958 5959 5960 5961 5961 5962 5962 5963 5963 5964 5964 5964 5964 5964 5964 5963 5964 5964 5964 5965 5965 5965 5966 5966 5966 5967 5967 5967 5967 5967 5967 5966 5967 5967 5967 5966 5966 5965 5965 5964 5963 5963 5962 5961 5960 5959 5958
5899 5901 5902 5904 5906 5908 5909 5911 5912 5913 5915 5916 5918 5919 5921 5922 5924 5925 5926 5927 5928 5930 5932 5934 5935 5935 5936 5938 5940 5941 5942 5944 5945 5946 5948 5950 5952 5954 5955 5956 5957 5958 5959 5960 5960 5961 5961 5962 5962 5962 5962 5963 5962 5962 5962 5962 5963 5963 5963 5963 5963 5964 5964 5965 5965 5965 5965 5965 5965 5965 5964 5965 5964 5964 5963 5963 5963 5962 5961 5961 5960 5959 5958 5957 5956
5896 5898 5900 5902 5904 5905 5907 5909 5910 5911 5913 5914 5915 5917 5918 5920 5921 5922 5924 5924 5925 5927 5928 5930 5932 5933 5933 5935 5936 5938 5939 5941 5942 5943 5944 5946 5948 5950 5952 5953 5955 5956 5957 5957 5958 5958 5959 5959 5960 5960 5960 5961 5961 5961 5961 5961 5961 5961 5961 5961 5961 5961 5961 5962 5962 5963 5963 5963 5963 5963 5962 5962 5962 5961 5961 5961 5960 5960 5959 5958 5957 5957 5956 5955 5954
5894 5896 5898 5900 5901 5903 5904 5906 5908 5909 5910 5912 5913 5915 5916 5917 5918 5919 5921 5922 5923 5924 5925 5927 5929 5930 5931 5932 5933 5935 5936 5937 5939 5940 5941 5942 5944 5946 5948 5950 5952 5953 5954 5955 5955 5956 5956 5957 5957 5958 5958 5958 5959 5959 5959 5959 5959 5959 5959 5959 5959 5959 5959 5959 5959 5960 5960 5960 5961 5961 5960 5960 5959 5959 5958 5958 5958 5957 5957 5956 5955 5954 5953 5952 5951
5891 5894 5896 5897 5899 5900 5901 5903 5905 5906 5908 5909 5911 5913 5914 5915 5916 5917 5918 5919 5920 5921 5922 5923 5925 5926 5928 5929 5930 5931 5933 5934 5935 5936 5938 5939 5940 5942 5945 5947 5949 5950 5952 5953 5953 5953 5954 5954 5955 5955 5956 5956 5956 5957 5957 5957 5957 5957 5956 5956 5956 5957 5956 5956 5957 5957 5957 5957 5958 5957 5957 5957 5957 5956 5955 5955 5955 5954 5954 5953 5952 5951 5950 5949 5948
5887 5891 5893 5895 5896 5897 5898 5900 5902 5903 5905 5907 5908 5910 5911 5912 5913 5914 5915 5916 5918 5918 5919 5920 5921 5923 5925 5926 5927 5928 5929 5931 5932 5933 5934 5935 5936 5939 5941 5943 5945 5947 5949 5950 5950 5951 5951 5952 5952 5953 5953 5953 5953 5954 5954 5955 5955 5955 5954 5954 5954 5954 5953 5953 5954 5954 5954 5955 5954 5954 5954 5954 5954 5953 5953 5952 5952 5952 5951 5950 5948 5948 5947 5946 5945
5884 5887 5889 5891 5892 5894 5895 5896 5898 5900 5902 5904 5905 5906 5908 5909 5910 5911 5912 5913 5915 5915 5916 5917 5918 5920 5921 5923 5924 5925 5926 5927 5928 5929 5931 5932 5933 5935 5937 5939 5941 5943 5945 5946 5947 5948 5948 5949 5949 5950 5950 5950 5951 5951 5951 5952 5952 5952 5952 5952 5951 5950 5950 5951 5951 5951 5951 5951 5951 5951 5951 5951 5951 5950 5950 5950 5949 5949 5948 5947 5945 5944 5943 5942 5941
5881 5883 5885 5886 5888 5890 5892 5893 5895 5896 5898 5900 5901 5903 5904 5905 5906 5908 5909 5910 5911 5912 5913 5914 5915 5916 5917 5919 5920 5921 5923 5924 5925 5926 5927 5928 5930 5931 5933 5935 5937 5939 5941 5942 5943 5944 5945 5946 5946 5947 5947 5947 5948 5948 5948 5949 5949 5949 5949 5949 5948 5948 5947 5948 5948 5948 5948 5948 5948 5948 5948 5948 5947 5947 5947 5947 5947 5946 5945 5943 5942 5941 5940 5938 5937
5875 5877 5879 5882 5884 5886 5888 5889 5891 5893 5894 5896 5897 5899 5900 5902 5903 5904 5905 5906 5907 5909 5910 5910 5911 5912 5914 5915 5916 5917 5919 5920 5922 5923 5923 5924 5926 5927 5929 5931 5933 5935 5937 5938 5939 5940 5941 5942 5943 5943 5944 5944 5945 5945 5945 5945 5945 5945 5945 5945 5945 5945 5945 5945 5945 5945 5945 5945 5945 5945 5945 5944 5944 5943 5943 5943 5943 5943 5941 5940 5939 5938 5937 5935 5934
5869 5872 5875 5877 5880 5882 5883 5885 5887 5889 5890 5892 5893 5895 5896 5898 5899 5900 5901 5902 5903 5905 5906 5907 5908 5909 5910 5911 5913 5913 5915 5916 5917 5919 5920 5920 5922 5923 5926 5928 5929 5930 5932 5934 5935 5936 5937 5938 5939 5940 5940 5941 5941 5942 5942 5942 5942 5942 5942 5942 5942 5942 5942 5942 5942 5942 5942 5942 5942 5942 5941 5940 5940 5939 5939 5939 5939 5939 5937 5936 5936 5934 5933 5931 5930
5865 5867 5870 5872 5875 5877 5879 5881 5883 5884 5886 5888 5889 5891 5892 5893 5895 5896 5897 5898 5899 5900 5902 5903 5904 5905 5906 5908 5909 5910 5911 5912 5913 5914 5916 5917 5918 5919 5922 5923 5925 5926 5928 5930 5931 5931 5933 5934 5935 5935 5936 5937 5937 5938 5938 5938 5938 5938 5938 5938 5938 5938 5938 5939 5939 5939 5939 5939 5939 5938 5937 5937 5936 5935 5934 5934 5934 5933 5932 5932 5931 5929 5928 5927 5925
5860 5862 5865 5868 5870 5872 5874 5876 5878 5880 5882 5884 5885 5887 5888 5889 5890 5891 5893 5894 5895 5896 5897 5899 5900 5901 5902 5903 5905 5906 5907 5908 5909 5910 5911 5913 5914 5915 5918 5919 5921 5923 5925 5926 5926 5927 5929 5930 5930 5931 5932 5932 5933 5933 5934 5934 5934 5934 5935 5935 5935 5935 5934 5934 5935 5935 5935 5935 5935 5934 5933 5932 5932 5931 5930 5930 5929 5928 5927 5926 5926 5924 5924 5923 5921
5855 5858 5861 5863 5866 5867 5869 5871 5873 5875 5877 5879 5881 5882 5884 5885 5886 5887 5888 5889 5890 5892 5893 5895 5896 5898 5898 5899 5900 5901 5903 5904 5906 5906 5907 5908 5910 5911 5913 5915 5917 5918 5920 5921 5922 5923 5925 5925 5926 5927 5928 5928 5929 5930 5930 5930 5931 5931 5931 5931 5931 5931 5930 5930 5930 5930 5931 5930 5930 5929 5928 5927 5927 5927 5926 5925 5924 5923 5922 5922 5921 5921 5921 5920 5919
5850 5853 5856 5858 5861 5862 5864 5866 5868 5871 5872 5874 5876 5878 5879 5880 5881 5882 5883 5885 5886 5888 5889 5890 5892 5893 5895 5896 5896 5897 5898 5900 5902 5902 5903 5904 5906 5907 5909 5910 5912 5914 5915 5917 5918 5919 5920 5920 5921 5923 5924 5924 5925 5926 5926 5926 5927 5927 5927 5927 5927 5927 5926 5926 5926 5926 5925 5925 5924 5924 5923 5922 5922 5922 5921 5920 5919 5920 5920 5920 5919 5920 5920 5919 5917
5844 5848 5851 5853 5855 5857 5858 5861 5863 5865 5867 5869 5871 5873 5874 5876 5877 5878 5879 5881 5882 5884 5885 5886 5887 5889 5891 5892 5892 5893 5894 5896 5898 5898 5899 5900 5901 5903 5904 5905 5907 5909 5911 5912 5913 5915 5915 5916 5918 5919 5920 5921 5922 5922 5922 5922 5922 5922 5922 5922 5922 5922 5922 5921 5921 5920 5920 5919 5919 5918 5917 5917 5917 5917 5917 5916 5917 5919 5920 5919 5919 5919 5918 5916 5915
5839 5843 5845 5847 5849 5851 5853 5855 5858 5860 5861 5863 5865 5868 5870 5872 5873 5875 5877 5878 5879 5880 5881 5882 5884 5885 5886 5887 5888 5889 5890 5892 5894 5895 5895 5895 5896 5898 5899 5901 5903 5905 5907 5908 5909 5910 5912 5914 5915 5916 5917 5917 5918 5918 5918 5918 5918 5918 5918 5918 5918 5917 5917 5916 5916 5915 5914 5914 5913 5913 5913 5913 5913 5913 5914 5916 5918 5919 5919 5918 5916 5915 5914 5912 5910
5834 5837 5839 5841 5843 5845 5847 5849 5851 5853 5856 5858 5861 5863 5866 5868 5869 5871 5873 5874 5875 5876 5877 5878 5880 5881 5881 5882 5883 5885 5887 5889 5890 5890 5890 5891 5892 5894 5896 5897 5899 5901 5902 5903 5905 5908 5910 5911 5912 5912 5913 5913 5914 5914 5914 5914 5914 5914 5914 5914 5913 5913 5912 5912 5911 5910 5909 5909 5909 5909 5909 5909 5910 5912 5914 5916 5917 5917 5915 5912 5910 5909 5907 5906 5905
5829 5832 5834 5835 5837 5839 5841 5843 5845 5848 5850 5853 5856 5858 5861 5863 5865 5866 5868 5870 5871 5872 5873 5875 5875 5876 5877 5878 5880 5882 5884 5885 5885 5886 5886 5887 5889 5890 5892 5893 5895 5897 5899 5900 5903 5905 5906 5907 5908 5908 5909 5909 5910 5910 5911 5911 5911 5911 5910 5910 5909 5908 5907 5907 5906 5906 5905 5905 5905 5905 5906 5907 5909 5911 5912 5912 5912 5910 5908 5905 5904 5903 5902 5900 5898
5824 5827 5829 5830 5832 5834 5835 5837 5839 5841 5844 5847 5850 5852 5855 5858 5859 5861 5864 5866 5867 5868 5869 5870 5871 5871 5873 5875 5877 5879 5880 5880 5881 5883 5884 5884 5885 5887 5888 5890 5892 5894 5895 5897 5900 5901 5902 5903 5903 5904 5905 5906 5907 5907 5907 5907 5907 5907 5906 5906 5905 5904 5903 5902 5902 5902 5902 5902 5903 5903 5903 5904 5906 5908 5908 5906 5905 5904 5902 5900 5899 5898 5897 5895 5893
5820 5822 5824 5824 5825 5827 5828 5830 5833 5835 5837 5840 5843 5846 5850 5853 5855 5858 5860 5862 5863 5864 5865 5866 5866 5867 5869 5871 5873 5874 5876 5877 5878 5880 5881 5881 5882 5883 5884 5886 5888 5890 5892 5894 5896 5897 5898 5899 5900 5900 5901 5902 5903 5903 5903 5903 5903 5902 5902 5901 5900 5899 5899 5898 5898 5899 5899 5900 5900 5900 5900 5901 5902 5902 5901 5901 5900 5899 5898 5897 5896 5895 5893 5891 5890
5814 5815 5814 5814 5815 5817 5820 5822 5824 5826 5830 5833 5836 5840 5845 5848 5850 5853 5855 5857 5858 5859 5860 5862 5862 5863 5865 5866 5868 5870 5871 5873 5875 5876 5878 5878 5879 5879 5881 5882 5884 5886 5888 5890 5891 5893 5894 5895 5896 5897 5897 5898 5898 5899 5899 5899 5899 5898 5898 5897 5895 5894 5894 5894 5895 5895 5896 5896 5896 5896 5896 5896 5896 5896 5897 5897 5896 5895 5894 5893 5892 5891 5889 5888 5886
5806 5806 5807 5809 5813 5817 5818 5818 5818 5819 5821 5823 5826 5832 5837 5842 5845 5847 5849 5852 5854 5855 5856 5858 5859 5860 5861 5863 5864 5865 5867 5869 5871 5873 5874 5875 5875 5876 5877 5878 5880 5882 5884 5885 5887 5888 5889 5891 5892 5893 5893 5894 5894 5894 5894 5894 5893 5892 5892 5892 5891 5890 5891 5891 5892 5892 5892 5892 5892 5891 5892 5892 5892 5892 5892 5892 5891 5889 5888 5887 5887 5885 5884 5883 5881
5799 5800 5803 5806 5810 5813 5816 5818 5820 5822 5823 5823 5824 5825 5828 5832 5836 5841 5844 5847 5849 5851 5852 5853 5854 5856 5857 5859 5860 5862 5863 5865 5867 5869 5870 5871 5872 5872 5873 5875 5876 5878 5879 5881 5882 5884 5885 5886 5887 5888 5889 5889 5889 5889 5888 5888 5886 5885 5886 5886 5886 5887 5888 5889 5889 5888 5888 5888 5888 5887 5887 5887 5887 5887 5886 5885 5884 5882 5882 5881 5880 5879 5878 5877 5875
5793 5795 5796 5799 5802 5806 5809 5812 5815 5818 5821 5823 5825 5827 5827 5826 5828 5833 5838 5841 5843 5845 5846 5848 5850 5852 5853 5855 5857 5858 5860 5861 5863 5864 5866 5867 5868 5869 5870 5872 5873 5874 5875 5876 5878 5879 5881 5882 5882 5883 5884 5884 5884 5884 5883 5881 5879 5877 5876 5877 5880 5883 5885 5885 5885 5884 5883 5883 5882 5882 5882 5882 5881 5880 5879 5878 5877 5876 5875 5875 5874 5873 5872 5871 5869
5787 5788 5789 5792 5796 5800 5803 5805 5808 5811 5813 5815 5819 5824 5828 5828 5826 5825 5828 5834 5837 5839 5841 5843 5846 5848 5850 5852 5853 5855 5856 5858 5859 5860 5862 5863 5864 5866 5867 5868 5869 5870 5871 5872 5873 5875 5876 5877 5877 5878 5879 5879 5879 5879 5877 5874 5870 5868 5869 5873 5877 5880 5881 5880 5879 5877 5876 5875 5876 5876 5875 5875 5875 5874 5873 5872 5871 5871 5870 5869 5868 5867 5866 5865 5864
5780 5782 5783 5785 5789 5792 5795 5798 5802 5804 5807 5809 5812 5815 5821 5826 5826 5822 5820 5825 5831 5834 5836 5839 5842 5844 5846 5848 5850 5851 5852 5853 5855 5856 5858 5860 5861 5862 5864 5864 5865 5866 5867 5868 5869 5870 5871 5872 5873 5873 5873 5873 5873 5873 5871 5868 5864 5862 5864 5869 5873 5874 5873 5872 5870 5868 5867 5868 5870 5871 5871 5870 5870 5869 5867 5866 5865 5865 5865 5864 5863 5861 5860 5860 5859
5773 5775 5777 5779 5782 5786 5790 5793 5796 5799 5801 5804 5807 5809 5812 5818 5824 5824 5819 5817 5822 5828 5832 5834 5837 5839 5841 5844 5845 5846 5848 5849 5851 5853 5854 5856 5857 5859 5860 5861 5862 5862 5863 5864 5865 5865 5866 5867 5867 5867 5867 5867 5868 5867 5866 5864 5860 5858 5858 5862 5865 5865 5864 5864 5863 5863 5863 5865 5867 5868 5866 5865 5864 5864 5863 5862 5860 5860 5859 5858 5857 5856 5855 5854 5853
5766 5768 5771 5773 5776 5780 5785 5788 5791 5793 5795 5797 5800 5803 5805 5811 5818 5823 5820 5815 5816 5823 5828 5830 5832 5835 5837 5839 5840 5842 5843 5845 5847 5848 5850 5851 5853 5855 5856 5857 5858 5858 5859 5859 5860 5860 5861 5861 5862 5862 5862 5862 5862 5862 5861 5859 5857 5854 5852 5854 5857 5858 5857 5857 5859 5860 5860 5861 5861 5861 5859 5858 5858 5858 5857 5857 5855 5854 5854 5853 5851 5850 5849 5848 5847
5759 5761 5764 5767 5770 5774 5778 5781 5784 5785 5788 5790 5793 5795 5799 5803 5809 5815 5817 5813 5812 5817 5823 5826 5828 5832 5833 5833 5835 5837 5839 5840 5842 5844 5845 5847 5849 5851 5852 5853 5853 5854 5854 5854 5854 5854 5855 5855 5855 5856 5856 5856 5856 5856 5855 5854 5853 5850 5847 5847 5850 5852 5852 5851 5852 5853 5853 5853 5853 5853 5852 5852 5852 5852 5851 5850 5849 5849 5848 5847 5845 5844 5842 5841 5840
5752 5756 5759 5762 5765 5768 5771 5775 5778 5780 5782 5785 5786 5787 5791 5795 5800 5806 5812 5813 5811 5813 5818 5822 5824 5826 5827 5828 5830 5832 5834 5836 5838 5840 5841 5843 5844 5846 5847 5848 5848 5848 5848 5848 5848 5848 5849 5849 5849 5849 5850 5850 5850 5850 5850 5849 5848 5846 5843 5842 5843 5845 5846 5846 5846 5846 5846 5845 5845 5845 5846 5846 5846 5845 5845 5844 5843 5842 5841 5840 5838 5836 5835 5834 5833
5746 5751 5756 5759 5761 5763 5767 5770 5773 5775 5777 5779 5780 5781 5784 5788 5792 5798 5806 5810 5810 5810 5813 5817 5818 5819 5821 5823 5825 5827 5829 5831 5833 5835 5837 5838 5839 5840 5841 5841 5842 5842 5841 5841 5842 5842 5842 5843 5843 5843 5844 5844 5844 5844 5844 5843 5842 5841 5839 5838 5837 5838 5839 5840 5842 5841 5840 5839 5839 5840 5840 5840 5840 5839 5838 5837 5837 5836 5835 5833 5832 5830 5828 5827 5826
5740 5747 5751 5753 5754 5758 5762 5765 5767 5769 5771 5773 5774 5775 5777 5781 5786 5790 5796 5802 5805 5804 5805 5808 5811 5813 5815 5817 5820 5822 5824 5826 5828 5829 5831 5832 5832 5833 5834 5835 5835 5835 5835 5835 5835 5835 5836 5836 5836 5837 5837 5837 5837 5838 5838 5837 5836 5835 5834 5834 5833 5832 5831 5832 5835 5835 5834 5833 5833 5833 5833 5833 5833 5832 5831 5831 5830 5829 5828 5827 5825 5824 5822 5821 5819
5735 5741 5744 5746 5750 5754 5758 5760 5762 5764 5766 5767 5769 5769 5771 5776 5780 5782 5786 5791 5795 5795 5796 5800 5804 5806 5809 5812 5814 5816 5818 5820 5821 5823 5824 5825 5826 5827 5828 5829 5829 5829 5829 5829 5828 5828 5829 5829 5829 5829 5830 5830 5831 5832 5831 5830 5830 5829 5828 5828 5828 5827 5825 5826 5827 5828 5828 5827 5827 5827 5827 5826 5826 5825 5825 5824 5824 5822 5821 5820 5818 5817 5815 5814 5812
5730 5735 5737 5740 5745 5750 5754 5755 5756 5758 5760 5761 5763 5764 5766 5770 5773 5775 5778 5783 5786 5787 5790 5794 5798 5801 5804 5807 5809 5811 5812 5813 5814 5816 5817 5818 5819 5820 5821 5822 5822 5822 5822 5822 5821 5821 5821 5822 5822 5822 5823 5824 5825 5825 5825 5824 5824 5823 5822 5821 5821 5821 5820 5820 5820 5820 5820 5820 5820 5820 5820 5819 5819 5818 5818 5817 5816 5815 5813 5812 5811 5809 5808 5806 5805
5725 5728 5731 5735 5740 5744 5747 5749 5749 5750 5752 5754 5756 5759 5761 5764 5767 5769 5774 5778 5781 5782 5786 5790 5794 5797 5800 5802 5803 5805 5806 5807 5809 5810 5810 5811 5812 5813 5814 5814 5815 5815 5815 5814 5814 5814 5815 5815 5815 5815 5816 5817 5818 5819 5819 5818 5818 5818 5817 5816 5815 5814 5814 5814 5814 5813 5812 5811 5811 5811 5811 5811 5810 5810 5809 5809 5808 5806 5805 5804 5802 5801 5800 5798 5797
5720 5722 5726 5730 5733 5736 5740 5743 5745 5747 5749 5751 5753 5755 5757 5760 5763 5767 5771 5775 5777 5779 5783 5787 5790 5793 5795 5797 5798 5800 5801 5802 5803 5803 5803 5804 5805 5806 5806 5807 5807 5807 5807 5807 5807 5807 5808 5808 5809 5809 5810 5810 5811 5811 5812 5812 5811 5811 5811 5810 5810 5809 5809 5809 5808 5807 5805 5804 5804 5804 5803 5802 5802 5801 5801 5800 5799 5798 5796 5795 5794 5793 5791 5790 5789
5716 5719 5723 5726 5728 5730 5734 5738 5742 5744 5746 5749 5751 5753 5755 5758 5761 5765 5768 5770 5772 5775 5779 5782 5784 5787 5789 5791 5792 5793 5794 5794 5795 5796 5797 5797 5798 5799 5799 5800 5800 5801 5801 5801 5801 5801 5802 5802 5803 5803 5803 5803 5804 5804 5804 5804 5804 5805 5804 5804 5804 5803 5803 5802 5802 5801 5799 5798 5798 5797 5796 5795 5794 5793 5792 5791 5790 5789 5788 5786 5785 5784 5783 5781 5779
5710 5714 5718 5721 5723 5725 5730 5734 5738 5741 5743 5745 5748 5751 5753 5754 5755 5757 5760 5763 5766 5769 5773 5775 5778 5780 5781 5783 5784 5785 5785 5787 5788 5789 5790 5791 5792 5792 5793 5793 5794 5794 5795 5795 5795 5795 5796 5796 5796 5797 5797 5797 5797 5797 5798 5798 5798 5798 5798 5797 5797 5797 5796 5795 5795 5794 5793 5791 5791 5789 5788 5787 5786 5785 5784 5783 5782 5780 5779 5778 5777 5775 5774 5772 5770
5704 5709 5713 5716 5718 5721 5725 5729 5733 5736 5738 5740 5744 5746 5747 5748 5749 5750 5752 5756 5760 5763 5765 5768 5770 5772 5773 5775 5776 5777 5778 5780 5781 5782 5784 5785 5785 5786 5786 5786 5786 5787 5788 5788 5789 5789 5789 5790 5790 5790 5790 5790 5791 5791 5791 5791 5791 5791 5791 5790 5790 5789 5789 5788 5787 5787 5786 5785 5783 5782 5781 5780 5778 5777 5776 5775 5773 5772 5771 5769 5768 5767 5765 5763 5762